This is the latest recevied weather packets stored in our database for station/object OE-11361. If no packets are shown the sender has not sent any weather packets the latest 10 day(s).
| Time | Temp. | Humidity | Pressure | Rain* | Wind** | Luminosity | Snow |
|---|---|---|---|---|---|---|---|
| 1788041104 | 15.56° C | 82% | 1016.9 hPa | 0 mm | - | 0 W/m² | - |
| 1788040504 | 15.56° C | 83% | 1016.7 hPa | 0 mm | - | 0 W/m² | - |
| 1788039677 | 15.56° C | 82% | 1016.9 hPa | 0 mm | - | 0 W/m² | - |
| 1788039303 | 16.11° C | 80% | 1016.6 hPa | 0 mm | - | 0 W/m² | - |
| 1788038704 | 16.67° C | 78% | 1016.5 hPa | 0 mm | - | 0 W/m² | - |
| 1788037877 | 16.67° C | 78% | 1016.5 hPa | 0 mm | - | 0 W/m² | - |
| 1788037503 | 16.67° C | 80% | 1016.4 hPa | 0 mm | - | 0 W/m² | - |
| 1788036904 | 16.67° C | 79% | 1016.5 hPa | 0 mm | - | 0 W/m² | - |
| 1788036077 | 16.67° C | 76% | 1016.2 hPa | 0 mm | - | 0 W/m² | - |
| 1788035703 | 17.22° C | 76% | 1016.4 hPa | 0 mm | - | 0 W/m² | - |
| 1788035104 | 16.67° C | 78% | 1016.4 hPa | 0 mm | - | 0 W/m² | - |
| 1788034277 | 17.22° C | 76% | 1016.3 hPa | 0 mm | - | 0 W/m² | - |
| 1788033904 | 17.22° C | 76% | 1016.3 hPa | 0 mm | - | 0 W/m² | - |
| 1788033304 | 17.78° C | 76% | 1016.2 hPa | 0 mm | - | 0 W/m² | - |
| 1788032477 | 17.78° C | 73% | 1016.2 hPa | 0 mm | - | 0 W/m² | - |
| 1788032104 | 18.33° C | 71% | 1015.9 hPa | 0 mm | - | 0 W/m² | - |
| 1788031504 | 18.33° C | 72% | 1015.9 hPa | 0 mm | - | 0 W/m² | - |
| 1788030677 | 17.78° C | 76% | 1016.1 hPa | 0 mm | - | 0 W/m² | - |
| 1788030304 | 17.78° C | 78% | 1016 hPa | 0 mm | - | 0 W/m² | - |
| 1788029704 | 17.78° C | 76% | 1016 hPa | 0 mm | - | 0 W/m² | - |
| 1788028877 | 17.78° C | 74% | 1015.9 hPa | 0 mm | - | 0 W/m² | - |
| 1788028504 | 17.78° C | 77% | 1015.6 hPa | 0 mm | - | 0 W/m² | - |
| 1788027904 | 18.33° C | 74% | 1015.4 hPa | 0 mm | - | 0 W/m² | - |
| 1788027077 | 18.33° C | 77% | 1015.2 hPa | 0 mm | - | 0 W/m² | - |
| 1788026704 | 18.33° C | 76% | 1015.1 hPa | 0 mm | - | 7 W/m² | - |
* Rain latest hour (hover to see other rain measurements)
** Current wind speed in m/s (hover to see current wind gust speed)